Time,TemperatureF,DewpointF,PressureIn,WindDirection,WindDirectionDegrees,WindSpeedMPH,WindSpeedGustMPH,Humidity,HourlyPrecipIn,Conditions,Clouds,dailyrainin,SoftwareType,DateUTC
2013-05-12 00:04:00,59.0,56.7,29.61,South,180,0.0,1.1,92,0.00,,,0.00,WUHU216HW,2013-05-12 04:04:00,
2013-05-12 00:09:00,59.0,56.7,29.61,South,180,0.7,0.7,92,0.00,,,0.00,WUHU216HW,2013-05-12 04:09:00,
2013-05-12 00:14:00,59.2,56.9,29.61,SSW,203,1.1,1.3,92,0.00,,,0.00,WUHU216HW,2013-05-12 04:14:00,
2013-05-12 00:19:00,59.2,56.9,29.62,SSW,203,0.9,1.8,92,0.00,,,0.00,WUHU216HW,2013-05-12 04:19:00,
2013-05-12 00:24:00,59.0,56.7,29.62,SSW,203,1.1,1.8,92,0.00,,,0.00,WUHU216HW,2013-05-12 04:24:00,
2013-05-12 00:29:00,59.0,56.7,29.61,SSW,203,0.7,1.8,92,0.00,,,0.00,WUHU216HW,2013-05-12 04:29:00,
2013-05-12 00:34:00,59.0,56.7,29.62,South,180,1.6,1.8,92,0.00,,,0.00,WUHU216HW,2013-05-12 04:34:00,
2013-05-12 00:39:00,59.0,56.7,29.62,SW,225,1.3,2.5,92,0.00,,,0.00,WUHU216HW,2013-05-12 04:39:00,
2013-05-12 00:44:00,59.2,56.9,29.62,SW,225,2.5,2.5,92,0.00,,,0.00,WUHU216HW,2013-05-12 04:44:00,
2013-05-12 00:49:00,59.4,57.1,29.62,SW,225,0.9,2.7,92,0.00,,,0.00,WUHU216HW,2013-05-12 04:49:00,
2013-05-12 00:54:00,59.6,57.2,29.61,South,180,2.5,2.7,92,0.00,,,0.00,WUHU216HW,2013-05-12 04:54:00,
2013-05-12 00:59:00,59.6,57.2,29.61,SSW,203,1.8,2.5,92,0.00,,,0.00,WUHU216HW,2013-05-12 04:59:00,
2013-05-12 01:04:00,59.6,57.2,29.61,SW,225,1.3,1.8,92,0.00,,,0.00,WUHU216HW,2013-05-12 05:04:00,
2013-05-12 01:09:00,59.6,57.2,29.61,SSW,203,0.9,1.8,92,0.00,,,0.00,WUHU216HW,2013-05-12 05:09:00,
2013-05-12 01:14:00,59.6,57.2,29.61,SW,225,0.9,1.8,92,0.00,,,0.00,WUHU216HW,2013-05-12 05:14:00,
2013-05-12 01:19:00,59.6,57.2,29.61,SW,225,0.4,1.6,92,0.00,,,0.00,WUHU216HW,2013-05-12 05:19:00,
2013-05-12 01:24:00,59.6,57.2,29.61,SW,225,1.1,1.3,92,0.00,,,0.00,WUHU216HW,2013-05-12 05:24:00,
2013-05-12 01:29:00,59.6,57.2,29.62,SW,225,1.1,1.3,92,0.00,,,0.00,WUHU216HW,2013-05-12 05:29:00,
2013-05-12 01:34:00,59.4,57.1,29.60,SW,225,0.4,1.1,92,0.00,,,0.00,WUHU216HW,2013-05-12 05:34:00,
2013-05-12 01:39:00,59.4,57.1,29.60,SW,225,0.7,0.7,92,0.00,,,0.00,WUHU216HW,2013-05-12 05:39:00,
2013-05-12 01:44:00,59.4,57.1,29.60,SW,225,1.1,1.1,92,0.00,,,0.00,WUHU216HW,2013-05-12 05:44:00,
2013-05-12 01:49:00,59.4,57.1,29.59,South,180,0.0,1.8,92,0.00,,,0.00,WUHU216HW,2013-05-12 05:49:00,
2013-05-12 01:54:00,59.4,57.1,29.59,SE,135,0.0,1.8,92,0.00,,,0.00,WUHU216HW,2013-05-12 05:54:00,
2013-05-12 01:59:00,59.4,57.1,29.60,SSW,203,0.0,1.1,92,0.00,,,0.00,WUHU216HW,2013-05-12 05:59:00,
2013-05-12 02:04:00,59.2,56.9,29.59,SSW,203,0.0,1.1,92,0.00,,,0.00,WUHU216HW,2013-05-12 06:04:00,
2013-05-12 02:09:00,59.2,56.9,29.59,WSW,248,0.7,0.7,92,0.00,,,0.00,WUHU216HW,2013-05-12 06:09:00,
2013-05-12 02:14:00,59.2,56.9,29.59,WSW,248,0.0,0.9,92,0.00,,,0.00,WUHU216HW,2013-05-12 06:14:00,
2013-05-12 02:19:00,59.0,56.7,29.59,SW,225,0.4,0.9,92,0.00,,,0.00,WUHU216HW,2013-05-12 06:19:00,
2013-05-12 02:24:00,58.9,56.3,29.59,SW,225,0.4,0.9,91,0.00,,,0.00,WUHU216HW,2013-05-12 06:24:00,
2013-05-12 02:29:00,58.7,56.1,29.59,SW,225,0.4,0.9,91,0.00,,,0.00,WUHU216HW,2013-05-12 06:29:00,
2013-05-12 02:34:00,58.7,56.1,29.59,SW,225,0.0,0.4,91,0.00,,,0.00,WUHU216HW,2013-05-12 06:34:00,
2013-05-12 02:39:00,58.5,55.9,29.59,SW,225,0.0,0.4,91,0.00,,,0.00,WUHU216HW,2013-05-12 06:39:00,
2013-05-12 02:44:00,58.3,55.7,29.58,SW,225,0.0,0.4,91,0.00,,,0.00,WUHU216HW,2013-05-12 06:44:00,
2013-05-12 02:49:00,58.3,55.7,29.58,SW,225,0.0,0.4,91,0.00,,,0.00,WUHU216HW,2013-05-12 06:49:00,
2013-05-12 02:54:00,58.1,55.5,29.57,SW,225,0.4,0.4,91,0.00,,,0.00,WUHU216HW,2013-05-12 06:54:00,
2013-05-12 02:59:00,58.1,55.5,29.56,North,0,0.2,1.3,91,0.00,,,0.00,WUHU216HW,2013-05-12 06:59:00,
2013-05-12 03:04:00,58.1,55.5,29.57,North,0,0.0,1.3,91,0.00,,,0.00,WUHU216HW,2013-05-12 07:04:00,
2013-05-12 03:09:00,58.0,55.4,29.57,North,0,0.0,0.4,91,0.00,,,0.00,WUHU216HW,2013-05-12 07:09:00,
2013-05-12 03:14:00,57.6,55.0,29.58,North,0,0.0,0.0,91,0.00,,,0.00,WUHU216HW,2013-05-12 07:14:00,
2013-05-12 03:19:00,57.4,54.8,29.58,North,0,0.0,0.2,91,0.00,,,0.00,WUHU216HW,2013-05-12 07:19:00,
2013-05-12 03:24:00,57.4,54.8,29.58,North,0,0.4,0.4,91,0.00,,,0.00,WUHU216HW,2013-05-12 07:24:00,
2013-05-12 03:29:00,57.4,54.8,29.58,North,0,0.2,0.4,91,0.00,,,0.00,WUHU216HW,2013-05-12 07:29:00,
2013-05-12 03:34:00,57.4,54.8,29.59,North,0,0.0,0.2,91,0.00,,,0.00,WUHU216HW,2013-05-12 07:34:00,
2013-05-12 03:39:00,57.4,54.8,29.59,North,0,0.4,0.4,91,0.00,,,0.00,WUHU216HW,2013-05-12 07:39:00,
2013-05-12 03:44:00,57.4,54.8,29.58,North,0,0.0,0.4,91,0.00,,,0.00,WUHU216HW,2013-05-12 07:44:00,
2013-05-12 03:49:00,57.4,54.8,29.59,WNW,293,0.4,0.4,91,0.00,,,0.00,WUHU216HW,2013-05-12 07:49:00,
2013-05-12 03:54:00,57.2,54.6,29.59,WNW,293,0.0,0.4,91,0.00,,,0.00,WUHU216HW,2013-05-12 07:54:00,
2013-05-12 03:59:00,57.2,54.6,29.59,WNW,293,0.0,0.0,91,0.00,,,0.00,WUHU216HW,2013-05-12 07:59:00,
2013-05-12 04:04:00,57.1,54.7,29.58,NW,315,0.4,1.1,92,0.00,,,0.00,WUHU216HW,2013-05-12 08:04:00,
2013-05-12 04:09:00,57.1,54.7,29.58,NNW,338,0.7,1.1,92,0.00,,,0.00,WUHU216HW,2013-05-12 08:09:00,
2013-05-12 04:14:00,56.9,54.5,29.59,NNE,23,0.4,0.7,92,0.00,,,0.00,WUHU216HW,2013-05-12 08:14:00,
2013-05-12 04:19:00,56.7,54.4,29.59,North,0,0.4,0.4,92,0.00,,,0.00,WUHU216HW,2013-05-12 08:19:00,
2013-05-12 04:24:00,56.5,54.2,29.59,ESE,113,0.2,1.1,92,0.00,,,0.00,WUHU216HW,2013-05-12 08:24:00,
2013-05-12 04:29:00,56.5,54.2,29.59,ESE,113,0.0,1.1,92,0.00,,,0.00,WUHU216HW,2013-05-12 08:29:00,
2013-05-12 04:35:00,56.5,54.2,29.59,ESE,113,0.0,0.4,92,0.00,,,0.00,WUHU216HW,2013-05-12 08:35:00,
2013-05-12 04:40:00,56.3,54.0,29.59,ESE,113,0.0,0.4,92,0.00,,,0.00,WUHU216HW,2013-05-12 08:40:00,
2013-05-12 04:45:00,56.3,54.0,29.59,ESE,113,0.0,0.0,92,0.00,,,0.00,WUHU216HW,2013-05-12 08:45:00,
2013-05-12 04:50:00,56.3,54.0,29.59,ESE,113,0.0,0.0,92,0.00,,,0.00,WUHU216HW,2013-05-12 08:50:00,
2013-05-12 04:55:00,56.2,53.8,29.59,ESE,113,0.0,0.0,92,0.00,,,0.00,WUHU216HW,2013-05-12 08:55:00,
2013-05-12 05:00:00,56.2,53.8,29.60,ESE,113,0.0,0.0,92,0.00,,,0.00,WUHU216HW,2013-05-12 09:00:00,
2013-05-12 05:05:00,56.2,53.8,29.60,ESE,113,0.0,0.0,92,0.00,,,0.00,WUHU216HW,2013-05-12 09:05:00,
2013-05-12 05:10:00,56.2,53.8,29.60,ESE,113,0.0,0.0,92,0.00,,,0.00,WUHU216HW,2013-05-12 09:10:00,
2013-05-12 05:15:00,56.2,53.8,29.59,ESE,113,0.0,0.0,92,0.00,,,0.00,WUHU216HW,2013-05-12 09:15:00,
2013-05-12 05:20:00,56.0,53.6,29.59,ESE,113,0.0,0.0,92,0.00,,,0.00,WUHU216HW,2013-05-12 09:20:00,
2013-05-12 05:25:00,56.0,53.6,29.59,ESE,113,0.4,0.4,92,0.00,,,0.00,WUHU216HW,2013-05-12 09:25:00,
2013-05-12 05:30:00,56.0,53.6,29.58,ESE,113,0.0,0.4,92,0.00,,,0.00,WUHU216HW,2013-05-12 09:30:00,
2013-05-12 05:35:00,56.0,53.6,29.58,ESE,113,0.0,0.0,92,0.00,,,0.00,WUHU216HW,2013-05-12 09:35:00,
2013-05-12 05:40:00,55.8,53.5,29.59,ESE,113,0.9,0.9,92,0.00,,,0.00,WUHU216HW,2013-05-12 09:40:00,
2013-05-12 05:45:00,55.8,53.5,29.59,ESE,113,0.0,0.9,92,0.00,,,0.00,WUHU216HW,2013-05-12 09:45:00,
2013-05-12 05:50:00,55.8,53.5,29.60,East,90,0.0,0.7,92,0.00,,,0.00,WUHU216HW,2013-05-12 09:50:00,
2013-05-12 05:55:00,55.8,53.5,29.60,East,90,0.0,0.7,92,0.00,,,0.00,WUHU216HW,2013-05-12 09:55:00,
2013-05-12 06:00:00,55.8,53.5,29.60,East,90,0.0,0.7,92,0.00,,,0.00,WUHU216HW,2013-05-12 10:00:00,
2013-05-12 06:05:00,55.8,53.5,29.60,East,90,0.0,0.0,92,0.00,,,0.00,WUHU216HW,2013-05-12 10:05:00,
2013-05-12 06:10:00,55.8,53.5,29.60,East,90,0.0,0.0,92,0.00,,,0.00,WUHU216HW,2013-05-12 10:10:00,
2013-05-12 06:15:00,55.8,53.5,29.60,SE,135,0.0,1.1,92,0.00,,,0.00,WUHU216HW,2013-05-12 10:15:00,
2013-05-12 06:20:00,55.8,53.5,29.60,SSE,158,0.2,1.1,92,0.00,,,0.00,WUHU216HW,2013-05-12 10:20:00,
2013-05-12 06:25:00,55.8,53.5,29.60,SSE,158,0.0,0.9,92,0.00,,,0.00,WUHU216HW,2013-05-12 10:25:00,
2013-05-12 06:30:00,55.8,53.5,29.60,SSE,158,0.0,0.0,92,0.00,,,0.00,WUHU216HW,2013-05-12 10:30:00,
2013-05-12 06:35:00,55.8,53.5,29.60,SW,225,0.4,0.9,92,0.00,,,0.00,WUHU216HW,2013-05-12 10:35:00,
2013-05-12 06:40:00,55.8,53.5,29.60,SW,225,0.0,0.9,92,0.00,,,0.00,WUHU216HW,2013-05-12 10:40:00,
2013-05-12 06:45:00,56.0,53.6,29.61,SSW,203,1.3,1.3,92,0.00,,,0.00,WUHU216HW,2013-05-12 10:45:00,
2013-05-12 06:50:00,56.0,53.6,29.60,SSW,203,0.0,1.3,92,0.00,,,0.00,WUHU216HW,2013-05-12 10:50:00,
2013-05-12 06:55:00,56.0,53.6,29.60,SSW,203,0.2,0.9,92,0.00,,,0.00,WUHU216HW,2013-05-12 10:55:00,
2013-05-12 07:00:00,56.2,53.8,29.60,SSW,203,0.4,1.1,92,0.00,,,0.00,WUHU216HW,2013-05-12 11:00:00,
2013-05-12 07:05:00,56.2,53.8,29.60,SSW,203,0.9,1.1,92,0.00,,,0.00,WUHU216HW,2013-05-12 11:05:00,
2013-05-12 07:10:00,56.2,53.8,29.60,SSW,203,0.0,1.1,92,0.00,,,0.00,WUHU216HW,2013-05-12 11:10:00,
2013-05-12 07:15:00,56.0,53.6,29.60,NNW,338,0.2,0.9,92,0.00,,,0.00,WUHU216HW,2013-05-12 11:15:00,
2013-05-12 07:20:00,56.2,53.8,29.60,SE,135,0.0,1.8,92,0.00,,,0.00,WUHU216HW,2013-05-12 11:20:00,
2013-05-12 07:25:00,56.2,53.8,29.60,SSW,203,0.0,1.8,92,0.00,,,0.00,WUHU216HW,2013-05-12 11:25:00,
2013-05-12 07:30:00,56.0,53.6,29.59,SSW,203,0.0,1.1,92,0.00,,,0.00,WUHU216HW,2013-05-12 11:30:00,
2013-05-12 07:35:00,56.0,53.6,29.59,SSW,203,0.7,0.7,92,0.00,,,0.00,WUHU216HW,2013-05-12 11:35:00,
2013-05-12 07:40:00,56.0,53.6,29.59,ENE,68,0.0,0.7,92,0.00,,,0.00,WUHU216HW,2013-05-12 11:40:00,
2013-05-12 07:45:00,56.2,53.8,29.59,ENE,68,0.0,0.4,92,0.00,,,0.00,WUHU216HW,2013-05-12 11:45:00,
2013-05-12 07:50:00,56.3,54.0,29.60,ENE,68,0.0,0.0,92,0.00,,,0.00,WUHU216HW,2013-05-12 11:50:00,
2013-05-12 07:55:00,56.2,53.8,29.60,SW,225,1.1,2.0,92,0.00,,,0.00,WUHU216HW,2013-05-12 11:55:00,
2013-05-12 08:00:00,55.8,53.5,29.60,SW,225,0.0,2.0,92,0.00,,,0.00,WUHU216HW,2013-05-12 12:00:00,
2013-05-12 08:05:00,55.4,53.1,29.61,SW,225,0.0,1.8,92,0.00,,,0.00,WUHU216HW,2013-05-12 12:05:00,
2013-05-12 08:10:00,55.3,52.9,29.61,WSW,248,0.4,1.8,92,0.00,,,0.00,WUHU216HW,2013-05-12 12:10:00,
2013-05-12 08:15:00,55.1,52.7,29.60,WSW,248,0.0,0.9,92,0.00,,,0.00,WUHU216HW,2013-05-12 12:15:00,
2013-05-12 08:20:00,55.4,53.1,29.60,NNW,338,0.4,0.9,92,0.00,,,0.00,WUHU216HW,2013-05-12 12:20:00,
2013-05-12 08:25:00,55.8,53.5,29.60,NNW,338,0.7,0.7,92,0.00,,,0.00,WUHU216HW,2013-05-12 12:25:00,
2013-05-12 08:30:00,56.3,54.0,29.59,NNE,23,0.4,0.7,92,0.00,,,0.00,WUHU216HW,2013-05-12 12:30:00,
2013-05-12 08:35:00,56.7,54.4,29.60,NW,315,0.9,1.1,92,0.00,,,0.00,WUHU216HW,2013-05-12 12:35:00,
2013-05-12 08:40:00,57.1,54.7,29.60,ESE,113,0.0,1.1,92,0.00,,,0.00,WUHU216HW,2013-05-12 12:40:00,
2013-05-12 08:45:00,57.6,55.3,29.60,SW,225,1.1,1.1,92,0.00,,,0.00,WUHU216HW,2013-05-12 12:45:00,
2013-05-12 08:50:00,57.8,55.4,29.60,SW,225,1.8,1.8,92,0.00,,,0.00,WUHU216HW,2013-05-12 12:50:00,
2013-05-12 08:55:00,57.6,55.3,29.60,North,0,0.0,1.8,92,0.00,,,0.00,WUHU216HW,2013-05-12 12:55:00,
2013-05-12 09:00:00,58.3,56.0,29.59,ESE,113,1.3,2.0,92,0.00,,,0.00,WUHU216HW,2013-05-12 13:00:00,
2013-05-12 09:05:00,59.9,58.0,29.60,West,270,0.9,2.0,93,0.00,,,0.00,WUHU216HW,2013-05-12 13:05:00,
2013-05-12 09:10:00,60.8,58.5,29.60,NNE,23,0.4,1.1,92,0.00,,,0.00,WUHU216HW,2013-05-12 13:10:00,
2013-05-12 09:15:00,61.0,58.7,29.60,WNW,293,1.1,1.1,92,0.00,,,0.00,WUHU216HW,2013-05-12 13:15:00,
2013-05-12 09:20:00,61.4,59.0,29.60,North,0,0.9,1.1,92,0.00,,,0.00,WUHU216HW,2013-05-12 13:20:00,
2013-05-12 09:25:00,60.8,58.2,29.60,NNE,23,0.0,1.3,91,0.00,,,0.00,WUHU216HW,2013-05-12 13:25:00,
2013-05-12 09:30:00,60.7,57.8,29.60,North,0,0.7,1.3,90,0.00,,,0.00,WUHU216HW,2013-05-12 13:30:00,
2013-05-12 09:35:00,60.8,58.0,29.60,NNW,338,1.1,1.3,90,0.00,,,0.00,WUHU216HW,2013-05-12 13:35:00,
2013-05-12 09:40:00,61.6,58.3,29.60,WSW,248,0.9,1.6,89,0.00,,,0.00,WUHU216HW,2013-05-12 13:40:00,
2013-05-12 09:45:00,62.3,58.1,29.60,North,0,0.7,3.4,86,0.00,,,0.00,WUHU216HW,2013-05-12 13:45:00,
2013-05-12 09:50:00,62.6,57.7,29.60,West,270,0.4,3.4,84,0.00,,,0.00,WUHU216HW,2013-05-12 13:50:00,
2013-05-12 09:55:00,63.5,57.6,29.60,WNW,293,0.7,1.8,81,0.00,,,0.00,WUHU216HW,2013-05-12 13:55:00,
2013-05-12 10:00:00,64.3,57.6,29.60,ENE,68,1.6,1.8,79,0.00,,,0.00,WUHU216HW,2013-05-12 14:00:00,
2013-05-12 10:05:00,65.7,58.3,29.60,North,0,2.9,2.9,77,0.00,,,0.00,WUHU216HW,2013-05-12 14:05:00,
2013-05-12 10:10:00,65.2,58.5,29.59,WSW,248,0.4,2.9,79,0.00,,,0.00,WUHU216HW,2013-05-12 14:10:00,
2013-05-12 10:15:00,65.9,58.9,29.59,WSW,248,1.6,2.5,78,0.00,,,0.00,WUHU216HW,2013-05-12 14:15:00,
2013-05-12 10:20:00,66.1,56.8,29.59,NE,45,2.7,2.7,72,0.00,,,0.00,WUHU216HW,2013-05-12 14:20:00,
2013-05-12 10:25:00,65.5,57.8,29.60,NW,315,0.7,2.7,76,0.00,,,0.00,WUHU216HW,2013-05-12 14:25:00,
2013-05-12 10:30:00,66.2,57.3,29.59,West,270,1.6,1.8,73,0.00,,,0.00,WUHU216HW,2013-05-12 14:30:00,
2013-05-12 10:35:00,67.0,58.4,29.59,NW,315,0.4,2.9,74,0.00,,,0.00,WUHU216HW,2013-05-12 14:35:00,
2013-05-12 10:40:00,67.1,57.4,29.60,WSW,248,2.0,2.9,71,0.00,,,0.00,WUHU216HW,2013-05-12 14:40:00,
2013-05-12 10:45:00,68.0,58.3,29.59,East,90,2.5,2.5,71,0.00,,,0.00,WUHU216HW,2013-05-12 14:45:00,
2013-05-12 10:50:00,68.4,58.7,29.59,WSW,248,1.1,3.1,71,0.00,,,0.00,WUHU216HW,2013-05-12 14:50:00,
2013-05-12 10:55:00,68.8,59.4,29.60,WSW,248,0.9,3.1,72,0.00,,,0.00,WUHU216HW,2013-05-12 14:55:00,
2013-05-12 11:00:00,69.1,57.2,29.60,NNE,23,2.5,2.5,66,0.00,,,0.00,WUHU216HW,2013-05-12 15:00:00,
2013-05-12 11:05:00,69.3,58.7,29.60,WSW,248,2.5,2.5,69,0.00,,,0.00,WUHU216HW,2013-05-12 15:05:00,
2013-05-12 11:10:00,68.9,58.3,29.59,WNW,293,1.1,2.5,69,0.00,,,0.00,WUHU216HW,2013-05-12 15:10:00,
2013-05-12 11:15:00,69.3,57.9,29.59,NNW,338,0.4,3.1,67,0.00,,,0.00,WUHU216HW,2013-05-12 15:15:00,
2013-05-12 11:20:00,70.2,58.7,29.59,WSW,248,1.8,3.1,67,0.00,,,0.00,WUHU216HW,2013-05-12 15:20:00,
2013-05-12 11:25:00,69.8,57.1,29.59,ENE,68,0.2,2.9,64,0.00,,,0.00,WUHU216HW,2013-05-12 15:25:00,
2013-05-12 11:30:00,69.8,58.0,29.59,WSW,248,1.1,2.9,66,0.00,,,0.00,WUHU216HW,2013-05-12 15:30:00,
2013-05-12 11:35:00,69.1,56.8,29.59,SW,225,4.0,4.0,65,0.00,,,0.00,WUHU216HW,2013-05-12 15:35:00,
2013-05-12 11:40:00,69.3,57.9,29.60,WSW,248,0.4,4.3,67,0.00,,,0.00,WUHU216HW,2013-05-12 15:40:00,
2013-05-12 11:45:00,69.8,57.1,29.59,West,270,1.8,4.3,64,0.00,,,0.00,WUHU216HW,2013-05-12 15:45:00,
2013-05-12 11:50:00,69.7,56.5,29.59,WSW,248,2.5,5.6,63,0.00,,,0.00,WUHU216HW,2013-05-12 15:50:00,
2013-05-12 11:55:00,68.8,54.8,29.59,SSE,158,2.5,5.6,61,0.00,,,0.00,WUHU216HW,2013-05-12 15:55:00,
2013-05-12 12:00:00,68.0,55.4,29.59,SW,225,3.4,3.8,64,0.00,,,0.00,WUHU216HW,2013-05-12 16:00:00,
2013-05-12 12:05:00,69.1,55.5,29.59,SW,225,3.1,4.5,62,0.00,,,0.00,WUHU216HW,2013-05-12 16:05:00,
2013-05-12 12:10:00,70.4,57.6,29.59,SW,225,3.4,4.5,64,0.00,,,0.00,WUHU216HW,2013-05-12 16:10:00,
2013-05-12 12:15:00,71.6,58.8,29.59,SW,225,2.9,4.7,64,0.00,,,0.00,WUHU216HW,2013-05-12 16:15:00,
2013-05-12 12:20:00,72.4,59.1,29.59,South,180,2.5,4.7,63,0.00,,,0.00,WUHU216HW,2013-05-12 16:20:00,
2013-05-12 12:26:00,72.0,56.9,29.59,SSW,203,1.8,3.4,59,0.00,,,0.00,WUHU216HW,2013-05-12 16:26:00,
2013-05-12 12:31:00,71.5,57.3,29.59,SSW,203,1.8,2.7,61,0.00,,,0.00,WUHU216HW,2013-05-12 16:31:00,
2013-05-12 12:36:00,71.8,57.7,29.58,SW,225,4.0,4.0,61,0.00,,,0.00,WUHU216HW,2013-05-12 16:36:00,
2013-05-12 12:41:00,72.2,56.5,29.59,SW,225,3.6,4.9,58,0.00,,,0.00,WUHU216HW,2013-05-12 16:41:00,
2013-05-12 12:46:00,70.7,53.2,29.59,NW,315,1.1,4.9,54,0.00,,,0.00,WUHU216HW,2013-05-12 16:46:00,
2013-05-12 12:51:00,70.9,55.5,29.58,South,180,2.7,4.7,58,0.00,,,0.00,WUHU216HW,2013-05-12 16:51:00,
2013-05-12 12:56:00,72.0,55.9,29.58,NNE,23,2.0,4.7,57,0.00,,,0.00,WUHU216HW,2013-05-12 16:56:00,
2013-05-12 13:01:00,72.5,56.3,29.58,NE,45,3.4,3.6,57,0.00,,,0.00,WUHU216HW,2013-05-12 17:01:00,
2013-05-12 13:06:00,70.4,52.4,29.58,South,180,3.4,4.0,53,0.00,,,0.00,WUHU216HW,2013-05-12 17:06:00,
2013-05-12 13:11:00,69.3,51.9,29.58,West,270,2.0,4.0,54,0.00,,,0.00,WUHU216HW,2013-05-12 17:11:00,
2013-05-12 13:16:00,69.1,52.8,29.58,SW,225,2.7,2.7,56,0.00,,,0.00,WUHU216HW,2013-05-12 17:16:00,
2013-05-12 13:21:00,70.2,53.7,29.58,SW,225,2.0,2.7,56,0.00,,,0.00,WUHU216HW,2013-05-12 17:21:00,
2013-05-12 13:26:00,70.9,54.4,29.58,SSW,203,2.9,3.4,56,0.00,,,0.00,WUHU216HW,2013-05-12 17:26:00,
2013-05-12 13:31:00,72.4,56.2,29.58,SW,225,1.1,3.4,57,0.00,,,0.00,WUHU216HW,2013-05-12 17:31:00,
2013-05-12 13:36:00,72.2,54.0,29.58,SSE,158,3.6,4.0,53,0.00,,,0.00,WUHU216HW,2013-05-12 17:36:00,
2013-05-12 13:41:00,70.6,51.0,29.58,WSW,248,1.8,4.0,50,0.00,,,0.00,WUHU216HW,2013-05-12 17:41:00,
2013-05-12 13:46:00,69.1,49.8,29.58,SW,225,4.0,4.0,50,0.00,,,0.00,WUHU216HW,2013-05-12 17:46:00,
2013-05-12 13:51:00,68.8,50.0,29.58,SSW,203,2.2,4.0,51,0.00,,,0.00,WUHU216HW,2013-05-12 17:51:00,
2013-05-12 13:56:00,68.0,50.2,29.58,SSW,203,4.5,4.5,53,0.00,,,0.00,WUHU216HW,2013-05-12 17:56:00,
2013-05-12 14:01:00,67.7,48.4,29.58,WSW,248,3.4,4.7,50,0.00,,,0.00,WUHU216HW,2013-05-12 18:01:00,
2013-05-12 14:06:00,67.3,50.0,29.58,West,270,0.7,4.7,54,0.00,,,0.00,WUHU216HW,2013-05-12 18:06:00,
2013-05-12 14:11:00,67.7,50.0,29.58,WNW,293,3.1,3.8,53,0.00,,,0.00,WUHU216HW,2013-05-12 18:11:00,
2013-05-12 14:16:00,68.0,49.2,29.58,West,270,2.5,4.0,51,0.00,,,0.00,WUHU216HW,2013-05-12 18:16:00,
2013-05-12 14:21:00,67.3,49.6,29.58,WNW,293,1.1,4.0,53,0.00,,,0.00,WUHU216HW,2013-05-12 18:21:00,
2013-05-12 14:26:00,66.8,49.6,29.58,SW,225,2.9,2.9,54,0.00,,,0.00,WUHU216HW,2013-05-12 18:26:00,
2013-05-12 14:31:00,67.9,50.6,29.58,South,180,2.0,3.6,54,0.00,,,0.00,WUHU216HW,2013-05-12 18:31:00,
2013-05-12 14:36:00,68.0,49.8,29.58,NW,315,0.7,3.6,52,0.00,,,0.00,WUHU216HW,2013-05-12 18:36:00,
2013-05-12 14:41:00,68.8,51.0,29.58,SW,225,1.8,2.9,53,0.00,,,0.00,WUHU216HW,2013-05-12 18:41:00,
2013-05-12 14:46:00,68.0,49.2,29.58,ENE,68,1.8,3.8,51,0.00,,,0.00,WUHU216HW,2013-05-12 18:46:00,
2013-05-12 14:51:00,67.1,49.4,29.58,WSW,248,1.8,3.8,53,0.00,,,0.00,WUHU216HW,2013-05-12 18:51:00,
2013-05-12 14:56:00,67.5,50.2,29.58,NW,315,2.7,4.3,54,0.00,,,0.00,WUHU216HW,2013-05-12 18:56:00,
2013-05-12 15:01:00,67.5,49.2,29.58,WSW,248,2.2,4.3,52,0.00,,,0.00,WUHU216HW,2013-05-12 19:01:00,
2013-05-12 15:06:00,68.0,49.8,29.58,SW,225,4.7,4.7,52,0.00,,,0.00,WUHU216HW,2013-05-12 19:06:00,
2013-05-12 15:11:00,68.9,49.6,29.58,WSW,248,4.3,4.7,50,0.00,,,0.00,WUHU216HW,2013-05-12 19:11:00,
2013-05-12 15:16:00,68.2,48.3,29.58,South,180,2.5,4.5,49,0.00,,,0.00,WUHU216HW,2013-05-12 19:16:00,
2013-05-12 15:21:00,68.4,47.9,29.58,SW,225,3.8,3.8,48,0.00,,,0.00,WUHU216HW,2013-05-12 19:21:00,
2013-05-12 15:26:00,67.9,48.1,29.58,WSW,248,2.2,3.8,49,0.00,,,0.00,WUHU216HW,2013-05-12 19:26:00,
2013-05-12 15:31:00,67.5,47.1,29.58,North,0,0.7,2.9,48,0.00,,,0.00,WUHU216HW,2013-05-12 19:31:00,
2013-05-12 15:36:00,67.1,44.4,29.58,WNW,293,3.1,4.0,44,0.00,,,0.00,WUHU216HW,2013-05-12 19:36:00,
2013-05-12 15:41:00,67.7,47.9,29.58,SE,135,1.1,4.0,49,0.00,,,0.00,WUHU216HW,2013-05-12 19:41:00,
2013-05-12 15:46:00,68.4,46.7,29.58,WNW,293,1.3,2.2,46,0.00,,,0.00,WUHU216HW,2013-05-12 19:46:00,
2013-05-12 15:51:00,68.6,46.3,29.58,NNW,338,1.8,6.3,45,0.00,,,0.00,WUHU216HW,2013-05-12 19:51:00,
2013-05-12 15:56:00,68.6,46.3,29.59,SW,225,1.1,6.3,45,0.00,,,0.00,WUHU216HW,2013-05-12 19:56:00,
2013-05-12 16:01:00,68.6,46.9,29.58,West,270,1.1,4.7,46,0.00,,,0.00,WUHU216HW,2013-05-12 20:01:00,
2013-05-12 16:06:00,68.8,46.4,29.58,North,0,2.9,5.4,45,0.00,,,0.00,WUHU216HW,2013-05-12 20:06:00,
2013-05-12 16:11:00,67.7,44.9,29.59,SW,225,3.4,5.4,44,0.00,,,0.00,WUHU216HW,2013-05-12 20:11:00,
2013-05-12 16:16:00,67.0,44.8,29.59,SW,225,3.1,3.6,45,0.00,,,0.00,WUHU216HW,2013-05-12 20:16:00,
2013-05-12 16:21:00,67.1,45.6,29.59,SW,225,2.0,5.4,46,0.00,,,0.00,WUHU216HW,2013-05-12 20:21:00,
2013-05-12 16:26:00,66.6,42.1,29.60,NNE,23,1.8,5.4,41,0.00,,,0.00,WUHU216HW,2013-05-12 20:26:00,
2013-05-12 16:31:00,66.1,42.9,29.60,SSW,203,5.6,5.6,43,0.00,,,0.00,WUHU216HW,2013-05-12 20:31:00,
2013-05-12 16:36:00,65.5,39.9,29.60,WNW,293,2.5,5.6,39,0.00,,,0.00,WUHU216HW,2013-05-12 20:36:00,
2013-05-12 16:41:00,65.2,40.2,29.60,WSW,248,2.0,4.0,40,0.00,,,0.00,WUHU216HW,2013-05-12 20:41:00,
2013-05-12 16:46:00,64.6,38.4,29.60,SW,225,1.1,4.0,38,0.00,,,0.00,WUHU216HW,2013-05-12 20:46:00,
2013-05-12 16:51:00,64.3,39.4,29.60,North,0,0.4,5.8,40,0.00,,,0.00,WUHU216HW,2013-05-12 20:51:00,
2013-05-12 16:56:00,64.3,38.0,29.61,South,180,2.0,5.8,38,0.00,,,0.00,WUHU216HW,2013-05-12 20:56:00,
2013-05-12 17:01:00,63.9,37.0,29.61,SW,225,2.0,4.0,37,0.00,,,0.00,WUHU216HW,2013-05-12 21:01:00,
2013-05-12 17:06:00,63.5,35.9,29.61,East,90,2.2,6.7,36,0.00,,,0.00,WUHU216HW,2013-05-12 21:06:00,
2013-05-12 17:11:00,63.2,35.6,29.61,West,270,2.0,6.7,36,0.00,,,0.00,WUHU216HW,2013-05-12 21:11:00,
2013-05-12 17:16:00,63.0,36.2,29.61,WSW,248,1.6,3.4,37,0.00,,,0.00,WUHU216HW,2013-05-12 21:16:00,
2013-05-12 17:21:00,62.6,35.1,29.62,WSW,248,1.1,2.7,36,0.00,,,0.00,WUHU216HW,2013-05-12 21:21:00,
2013-05-12 17:26:00,62.6,33.7,29.62,NW,315,3.4,3.4,34,0.00,,,0.00,WUHU216HW,2013-05-12 21:26:00,
2013-05-12 17:31:00,62.5,34.9,29.63,ENE,68,3.6,3.6,36,0.00,,,0.00,WUHU216HW,2013-05-12 21:31:00,
2013-05-12 17:36:00,62.3,35.5,29.63,SSW,203,2.5,3.6,37,0.00,,,0.00,WUHU216HW,2013-05-12 21:36:00,
2013-05-12 17:41:00,62.3,34.7,29.63,WSW,248,1.1,3.4,36,0.00,,,0.00,WUHU216HW,2013-05-12 21:41:00,
2013-05-12 17:46:00,62.3,35.5,29.63,SSE,158,3.4,4.0,37,0.00,,,0.00,WUHU216HW,2013-05-12 21:46:00,
2013-05-12 17:51:00,62.3,36.2,29.63,WSW,248,1.1,4.0,38,0.00,,,0.00,WUHU216HW,2013-05-12 21:51:00,
2013-05-12 17:56:00,62.5,37.8,29.64,West,270,4.0,4.0,40,0.00,,,0.00,WUHU216HW,2013-05-12 21:56:00,
2013-05-12 18:01:00,61.6,34.1,29.64,WSW,248,2.9,4.5,36,0.00,,,0.00,WUHU216HW,2013-05-12 22:01:00,
2013-05-12 18:06:00,60.8,34.2,29.64,West,270,1.6,4.5,37,0.00,,,0.00,WUHU216HW,2013-05-12 22:06:00,
2013-05-12 18:11:00,60.1,32.1,29.65,West,270,4.0,4.0,35,0.00,,,0.00,WUHU216HW,2013-05-12 22:11:00,
2013-05-12 18:16:00,59.8,33.9,29.65,South,180,1.3,4.0,38,0.00,,,0.00,WUHU216HW,2013-05-12 22:16:00,
2013-05-12 18:21:00,59.6,35.2,29.65,WSW,248,2.5,2.9,40,0.00,,,0.00,WUHU216HW,2013-05-12 22:21:00,
2013-05-12 18:26:00,59.4,34.4,29.65,West,270,2.7,2.7,39,0.00,,,0.00,WUHU216HW,2013-05-12 22:26:00,
2013-05-12 18:31:00,59.4,33.7,29.66,WSW,248,0.4,3.8,38,0.00,,,0.00,WUHU216HW,2013-05-12 22:31:00,
2013-05-12 18:36:00,59.4,33.7,29.66,West,270,1.8,3.8,38,0.00,,,0.00,WUHU216HW,2013-05-12 22:36:00,
2013-05-12 18:41:00,59.0,34.0,29.66,SW,225,1.8,6.9,39,0.00,,,0.00,WUHU216HW,2013-05-12 22:41:00,
2013-05-12 18:46:00,58.5,32.1,29.67,NNE,23,0.7,6.9,37,0.00,,,0.00,WUHU216HW,2013-05-12 22:46:00,
2013-05-12 18:51:00,58.0,33.0,29.67,NW,315,1.3,3.1,39,0.00,,,0.00,WUHU216HW,2013-05-12 22:51:00,
2013-05-12 18:56:00,57.4,32.6,29.67,WSW,248,0.4,2.2,39,0.00,,,0.00,WUHU216HW,2013-05-12 22:56:00,
2013-05-12 19:01:00,57.1,32.9,29.67,WNW,293,1.1,2.7,40,0.00,,,0.00,WUHU216HW,2013-05-12 23:01:00,
2013-05-12 19:06:00,56.7,32.7,29.67,NNE,23,0.0,2.7,40,0.00,,,0.00,WUHU216HW,2013-05-12 23:06:00,
2013-05-12 19:11:00,56.5,33.0,29.67,West,270,0.0,2.2,41,0.00,,,0.00,WUHU216HW,2013-05-12 23:11:00,
2013-05-12 19:16:00,56.2,32.7,29.68,WSW,248,1.1,1.1,41,0.00,,,0.00,WUHU216HW,2013-05-12 23:16:00,
2013-05-12 19:21:00,56.0,32.6,29.68,NW,315,1.6,2.5,41,0.00,,,0.00,WUHU216HW,2013-05-12 23:21:00,
2013-05-12 19:26:00,55.8,31.9,29.68,West,270,3.6,3.6,40,0.00,,,0.00,WUHU216HW,2013-05-12 23:26:00,
2013-05-12 19:31:00,55.8,32.4,29.68,SW,225,1.1,3.6,41,0.00,,,0.00,WUHU216HW,2013-05-12 23:31:00,
2013-05-12 19:36:00,55.6,32.8,29.68,WNW,293,0.2,1.8,42,0.00,,,0.00,WUHU216HW,2013-05-12 23:36:00,
2013-05-12 19:41:00,55.3,33.0,29.69,WNW,293,0.4,2.5,43,0.00,,,0.00,WUHU216HW,2013-05-12 23:41:00,
2013-05-12 19:46:00,55.3,32.5,29.69,WNW,293,0.7,2.5,42,0.00,,,0.00,WUHU216HW,2013-05-12 23:46:00,
2013-05-12 19:52:00,55.1,31.8,29.69,North,0,1.3,2.0,41,0.00,,,0.00,WUHU216HW,2013-05-12 23:52:00,
2013-05-12 19:57:00,54.7,32.0,29.69,West,270,0.2,2.7,42,0.00,,,0.00,WUHU216HW,2013-05-12 23:57:00,
2013-05-12 20:02:00,54.4,32.2,29.69,WSW,248,0.0,2.7,43,0.00,,,0.00,WUHU216HW,2013-05-13 00:02:00,
2013-05-12 20:07:00,54.0,31.9,29.70,WSW,248,0.4,2.0,43,0.00,,,0.00,WUHU216HW,2013-05-13 00:07:00,
2013-05-12 20:12:00,53.6,32.1,29.70,WSW,248,0.0,0.9,44,0.00,,,0.00,WUHU216HW,2013-05-13 00:12:00,
2013-05-12 20:17:00,53.3,31.8,29.71,WNW,293,0.9,1.1,44,0.00,,,0.00,WUHU216HW,2013-05-13 00:17:00,
2013-05-12 20:22:00,52.9,31.5,29.71,WNW,293,1.1,1.8,44,0.00,,,0.00,WUHU216HW,2013-05-13 00:22:00,
2013-05-12 20:27:00,52.9,31.5,29.71,NE,45,0.0,1.8,44,0.00,,,0.00,WUHU216HW,2013-05-13 00:27:00,
2013-05-12 20:32:00,52.4,31.0,29.71,NNE,23,0.0,1.3,44,0.00,,,0.00,WUHU216HW,2013-05-13 00:32:00,
2013-05-12 20:37:00,52.2,31.4,29.72,West,270,0.0,1.8,45,0.00,,,0.00,WUHU216HW,2013-05-13 00:37:00,
2013-05-12 20:42:00,51.8,30.5,29.72,NE,45,1.1,1.8,44,0.00,,,0.00,WUHU216HW,2013-05-13 00:42:00,
2013-05-12 20:47:00,51.7,30.9,29.72,WNW,293,0.9,1.3,45,0.00,,,0.00,WUHU216HW,2013-05-13 00:47:00,
2013-05-12 20:52:00,51.5,30.7,29.73,NW,315,2.0,2.0,45,0.00,,,0.00,WUHU216HW,2013-05-13 00:52:00,
2013-05-12 20:57:00,51.1,31.0,29.73,West,270,0.4,2.5,46,0.00,,,0.00,WUHU216HW,2013-05-13 00:57:00,
2013-05-12 21:02:00,50.9,30.8,29.73,SW,225,0.0,2.5,46,0.00,,,0.00,WUHU216HW,2013-05-13 01:02:00,
2013-05-12 21:07:00,50.8,31.2,29.73,WSW,248,1.8,1.8,47,0.00,,,0.00,WUHU216HW,2013-05-13 01:07:00,
2013-05-12 21:12:00,50.9,30.8,29.74,NE,45,1.6,2.5,46,0.00,,,0.00,WUHU216HW,2013-05-13 01:12:00,
2013-05-12 21:17:00,51.3,30.6,29.74,West,270,2.9,3.1,45,0.00,,,0.00,WUHU216HW,2013-05-13 01:17:00,
2013-05-12 21:22:00,51.5,30.7,29.75,SSE,158,1.8,3.1,45,0.00,,,0.00,WUHU216HW,2013-05-13 01:22:00,
2013-05-12 21:27:00,51.5,31.3,29.75,WNW,293,1.1,3.4,46,0.00,,,0.00,WUHU216HW,2013-05-13 01:27:00,
2013-05-12 21:32:00,51.3,31.2,29.75,WSW,248,1.8,3.4,46,0.00,,,0.00,WUHU216HW,2013-05-13 01:32:00,
2013-05-12 21:37:00,50.9,31.3,29.76,ENE,68,3.4,3.4,47,0.00,,,0.00,WUHU216HW,2013-05-13 01:37:00,
2013-05-12 21:42:00,51.1,31.0,29.76,WSW,248,2.5,3.6,46,0.00,,,0.00,WUHU216HW,2013-05-13 01:42:00,
2013-05-12 21:47:00,51.1,31.0,29.76,WSW,248,2.0,3.6,46,0.00,,,0.00,WUHU216HW,2013-05-13 01:47:00,
2013-05-12 21:52:00,50.9,30.8,29.77,WSW,248,2.9,4.0,46,0.00,,,0.00,WUHU216HW,2013-05-13 01:52:00,
2013-05-12 21:57:00,50.9,30.8,29.77,NNW,338,1.1,4.7,46,0.00,,,0.00,WUHU216HW,2013-05-13 01:57:00,
2013-05-12 22:02:00,50.9,30.8,29.78,North,0,0.4,4.7,46,0.00,,,0.00,WUHU216HW,2013-05-13 02:02:00,
2013-05-12 22:07:00,50.8,30.1,29.78,WSW,248,1.8,1.8,45,0.00,,,0.00,WUHU216HW,2013-05-13 02:07:00,
2013-05-12 22:12:00,50.6,30.5,29.78,SW,225,0.0,1.8,46,0.00,,,0.00,WUHU216HW,2013-05-13 02:12:00,
2013-05-12 22:17:00,50.4,30.3,29.78,North,0,0.4,2.5,46,0.00,,,0.00,WUHU216HW,2013-05-13 02:17:00,
2013-05-12 22:22:00,50.4,30.3,29.78,WNW,293,1.8,2.5,46,0.00,,,0.00,WUHU216HW,2013-05-13 02:22:00,
2013-05-12 22:27:00,50.0,30.5,29.78,WSW,248,2.0,2.5,47,0.00,,,0.00,WUHU216HW,2013-05-13 02:27:00,
2013-05-12 22:32:00,49.7,30.3,29.79,NE,45,0.7,2.5,47,0.00,,,0.00,WUHU216HW,2013-05-13 02:32:00,
2013-05-12 22:37:00,49.5,30.6,29.79,West,270,0.2,2.7,48,0.00,,,0.00,WUHU216HW,2013-05-13 02:37:00,
2013-05-12 22:42:00,49.3,30.4,29.79,ENE,68,1.3,2.7,48,0.00,,,0.00,WUHU216HW,2013-05-13 02:42:00,
2013-05-12 22:47:00,49.1,30.3,29.79,NW,315,1.6,2.5,48,0.00,,,0.00,WUHU216HW,2013-05-13 02:47:00,
2013-05-12 22:52:00,48.8,30.4,29.79,SSE,158,1.8,2.0,49,0.00,,,0.00,WUHU216HW,2013-05-13 02:52:00,
2013-05-12 22:57:00,48.6,30.3,29.80,WSW,248,0.4,3.1,49,0.00,,,0.00,WUHU216HW,2013-05-13 02:57:00,
2013-05-12 23:02:00,48.6,30.8,29.80,WSW,248,0.9,3.1,50,0.00,,,0.00,WUHU216HW,2013-05-13 03:02:00,
2013-05-12 23:07:00,48.2,30.4,29.80,West,270,0.2,2.5,50,0.00,,,0.00,WUHU216HW,2013-05-13 03:07:00,
2013-05-12 23:12:00,48.1,30.7,29.80,West,270,0.2,2.5,51,0.00,,,0.00,WUHU216HW,2013-05-13 03:12:00,
2013-05-12 23:17:00,47.7,30.4,29.80,NW,315,0.2,1.8,51,0.00,,,0.00,WUHU216HW,2013-05-13 03:17:00,
2013-05-12 23:22:00,47.2,30.3,29.80,West,270,0.0,1.3,52,0.00,,,0.00,WUHU216HW,2013-05-13 03:22:00,
2013-05-12 23:27:00,46.8,30.5,29.80,SW,225,0.4,2.0,53,0.00,,,0.00,WUHU216HW,2013-05-13 03:27:00,
2013-05-12 23:32:00,46.6,31.2,29.80,West,270,0.9,2.0,55,0.00,,,0.00,WUHU216HW,2013-05-13 03:32:00,
2013-05-12 23:37:00,46.4,31.1,29.81,WNW,293,0.0,1.8,55,0.00,,,0.00,WUHU216HW,2013-05-13 03:37:00,
2013-05-12 23:42:00,46.3,30.9,29.80,SSW,203,1.1,1.3,55,0.00,,,0.00,WUHU216HW,2013-05-13 03:42:00,
2013-05-12 23:47:00,46.1,31.1,29.81,West,270,1.8,1.8,56,0.00,,,0.00,WUHU216HW,2013-05-13 03:47:00,
2013-05-12 23:52:00,45.9,31.5,29.81,West,270,0.4,1.8,57,0.00,,,0.00,WUHU216HW,2013-05-13 03:52:00,
2013-05-12 23:57:00,45.7,31.3,29.81,West,270,0.0,1.1,57,0.00,,,0.00,WUHU216HW,2013-05-13 03:57:00,